Orbital Elements at Epoch 2459000.5 (2020-May-31.0) TDB
Reference: JPL 21 (heliocentric ecliptic J2000)
Element | Value | Uncertainty (1-sigma) | Units |
e | .120867644469812 | 3.0026e-08 | |
a | 2.20567555662503 | 6.3891e-09 | au |
q | 1.939080747631121 | 6.8123e-08 | au |
i | 7.162090352472087 | 3.0406e-06 | deg |
node | 106.4167732563954 | 2.6928e-05 | deg |
peri | 304.7073629496772 | 3.0363e-05 | deg |
M | 292.8559108298069 | 1.3372e-05 | deg |
tp | 2459223.659900187306 (2021-Jan-09.15990019) | 4.444e-05 | TDB |
period | 1196.494956745854 3.28 | 5.1988e-06 1.423e-08 | d yr |
n | .3008788277546138 | 1.3073e-09 | deg/d |
Q | 2.472270365618939 | 7.1613e-09 | au |
|
| | Orbit Determination Parameters
Additional Information
|